Time,TemperatureF,DewpointF,PressureIn,WindDirection,WindDirectionDegrees,WindSpeedMPH,WindSpeedGustMPH,Humidity,HourlyPrecipIn,Conditions,Clouds,dailyrainin,SoftwareType,DateUTC
2013-07-08 00:02:00,59.0,59.0,30.06,NNW,346,6.0,17.0,100,0.00,,,0.00,,2013-07-08 07:02:00,
2013-07-08 00:11:00,59.0,59.0,30.06,NW,319,8.0,16.0,100,0.00,,,0.00,,2013-07-08 07:11:00,
2013-07-08 00:22:00,58.0,58.0,30.06,NW,304,7.0,14.0,100,0.00,,,0.00,,2013-07-08 07:22:00,
2013-07-08 00:34:00,58.0,58.0,30.06,NW,304,7.0,14.0,100,0.00,,,0.00,,2013-07-08 07:34:00,
2013-07-08 00:44:00,58.0,58.0,30.07,NW,324,7.0,11.0,100,0.00,,,0.00,,2013-07-08 07:44:00,
2013-07-08 00:52:00,58.0,58.0,30.07,NW,313,4.0,13.0,100,0.00,,,0.00,,2013-07-08 07:52:00,
2013-07-08 01:02:00,58.0,58.0,30.07,NW,313,4.0,13.0,100,0.00,,,0.00,,2013-07-08 08:02:00,
2013-07-08 01:11:00,57.0,57.0,30.07,NNW,329,4.0,11.0,100,0.00,,,0.00,,2013-07-08 08:11:00,
2013-07-08 01:22:00,57.0,57.0,30.08,NW,314,6.0,10.0,100,0.00,,,0.00,,2013-07-08 08:22:00,
2013-07-08 01:33:00,57.0,57.0,30.08,NW,314,6.0,10.0,100,0.00,,,0.00,,2013-07-08 08:33:00,
2013-07-08 01:42:00,57.0,57.0,30.08,NNW,329,3.0,10.0,100,0.00,,,0.00,,2013-07-08 08:42:00,
2013-07-08 01:52:00,57.0,57.0,30.07,NW,311,5.0,9.0,100,0.00,,,0.00,,2013-07-08 08:52:00,
2013-07-08 02:01:00,57.0,57.0,30.07,NW,311,5.0,9.0,100,0.00,,,0.00,,2013-07-08 09:01:00,
2013-07-08 02:11:00,57.0,57.0,30.07,NW,310,6.0,12.0,100,0.00,,,0.00,,2013-07-08 09:11:00,
2013-07-08 02:21:00,57.0,57.0,30.08,NNW,346,4.0,10.0,100,0.00,,,0.00,,2013-07-08 09:21:00,
2013-07-08 02:34:00,57.0,57.0,30.08,NNW,346,4.0,10.0,100,0.00,,,0.00,,2013-07-08 09:34:00,
2013-07-08 02:43:00,57.0,57.0,30.07,NW,306,4.0,10.0,100,0.00,,,0.00,,2013-07-08 09:43:00,
2013-07-08 02:52:00,57.0,57.0,30.07,NW,309,1.0,6.0,100,0.00,,,0.00,,2013-07-08 09:52:00,
2013-07-08 03:01:00,57.0,57.0,30.07,NW,309,1.0,6.0,100,0.00,,,0.00,,2013-07-08 10:01:00,
2013-07-08 03:11:00,57.0,57.0,30.08,NNW,342,4.0,6.0,100,0.00,,,0.00,,2013-07-08 10:11:00,
2013-07-08 03:22:00,57.0,57.0,30.08,North,5,2.0,6.0,100,0.00,,,0.00,,2013-07-08 10:22:00,
2013-07-08 03:34:00,57.0,57.0,30.08,North,5,2.0,6.0,100,0.00,,,0.00,,2013-07-08 10:34:00,
2013-07-08 03:43:00,57.0,57.0,30.08,North,5,3.0,7.0,100,0.00,,,0.00,,2013-07-08 10:43:00,
2013-07-08 03:53:00,57.0,57.0,30.08,NNE,19,5.0,7.0,100,0.00,,,0.00,,2013-07-08 10:53:00,
2013-07-08 04:02:00,57.0,57.0,30.08,NNE,19,5.0,7.0,100,0.00,,,0.00,,2013-07-08 11:02:00,
2013-07-08 04:11:00,57.0,57.0,30.08,NNW,331,3.0,7.0,100,0.00,,,0.00,,2013-07-08 11:11:00,
2013-07-08 04:33:00,57.0,57.0,30.08,NW,315,4.0,7.0,100,0.00,,,0.00,,2013-07-08 11:33:00,
2013-07-08 04:43:00,57.0,57.0,30.09,North,360,4.0,7.0,100,0.00,,,0.00,,2013-07-08 11:43:00,
2013-07-08 04:52:00,57.0,57.0,30.09,NW,321,3.0,5.0,100,0.00,,,0.00,,2013-07-08 11:52:00,
2013-07-08 05:01:00,57.0,57.0,30.09,NW,321,3.0,5.0,100,0.00,,,0.00,,2013-07-08 12:01:00,
2013-07-08 05:11:00,57.0,57.0,30.09,NNW,340,2.0,7.0,100,0.00,,,0.00,,2013-07-08 12:11:00,
2013-07-08 05:22:00,57.0,57.0,30.09,WNW,299,8.0,11.0,100,0.00,,,0.00,,2013-07-08 12:22:00,
2013-07-08 05:33:00,57.0,57.0,30.09,WNW,299,8.0,11.0,100,0.00,,,0.00,,2013-07-08 12:33:00,
2013-07-08 05:43:00,57.0,57.0,30.10,NNE,21,3.0,7.0,100,0.00,,,0.00,,2013-07-08 12:43:00,
2013-07-08 05:53:00,57.0,57.0,30.10,NNW,335,3.0,9.0,100,0.00,,,0.00,,2013-07-08 12:53:00,
2013-07-08 06:01:00,57.0,57.0,30.10,NNW,335,3.0,9.0,100,0.00,,,0.00,,2013-07-08 13:01:00,
2013-07-08 06:11:00,58.0,58.0,30.10,North,350,6.0,9.0,100,0.00,,,0.00,,2013-07-08 13:11:00,
2013-07-08 06:22:00,58.0,58.0,30.10,NNW,341,5.0,11.0,100,0.00,,,0.00,,2013-07-08 13:22:00,
2013-07-08 06:33:00,58.0,58.0,30.10,NNW,341,5.0,11.0,100,0.00,,,0.00,,2013-07-08 13:33:00,
2013-07-08 06:42:00,58.0,58.0,30.10,NNW,342,5.0,10.0,100,0.00,,,0.00,,2013-07-08 13:42:00,
2013-07-08 06:53:00,58.0,58.0,30.11,NNW,334,3.0,7.0,100,0.00,,,0.00,,2013-07-08 13:53:00,
2013-07-08 07:01:00,58.0,58.0,30.11,NNW,334,3.0,7.0,100,0.00,,,0.00,,2013-07-08 14:01:00,
2013-07-08 07:12:00,58.0,58.0,30.11,NNW,345,4.0,10.0,100,0.00,,,0.00,,2013-07-08 14:12:00,
2013-07-08 07:22:00,58.0,58.0,30.12,NNW,335,5.0,10.0,100,0.00,,,0.00,,2013-07-08 14:22:00,
2013-07-08 07:33:00,58.0,58.0,30.12,NNW,335,5.0,10.0,100,0.00,,,0.00,,2013-07-08 14:33:00,
2013-07-08 07:43:00,58.0,58.0,30.11,NNE,13,3.0,9.0,100,0.00,,,0.00,,2013-07-08 14:43:00,
2013-07-08 07:53:00,58.0,58.0,30.11,NNE,13,3.0,9.0,100,0.00,,,0.00,,2013-07-08 14:53:00,
2013-07-08 08:01:00,59.0,59.0,30.12,NW,320,4.0,11.0,100,0.00,,,0.00,,2013-07-08 15:01:00,
2013-07-08 08:11:00,59.0,59.0,30.13,NE,35,5.0,9.0,100,0.00,,,0.00,,2013-07-08 15:11:00,
2013-07-08 08:22:00,59.0,59.0,30.14,NW,324,7.0,15.0,100,0.00,,,0.00,,2013-07-08 15:22:00,
2013-07-08 08:33:00,59.0,59.0,30.14,NW,324,7.0,15.0,100,0.00,,,0.00,,2013-07-08 15:33:00,
2013-07-08 08:43:00,59.0,59.0,30.13,NW,313,7.0,17.0,100,0.00,,,0.00,,2013-07-08 15:43:00,
2013-07-08 08:53:00,60.0,60.0,30.13,NW,304,4.0,12.0,100,0.00,,,0.00,,2013-07-08 15:53:00,
2013-07-08 09:01:00,60.0,60.0,30.13,NW,304,4.0,12.0,100,0.00,,,0.00,,2013-07-08 16:01:00,
2013-07-08 09:11:00,60.0,60.0,30.13,NW,320,8.0,15.0,100,0.00,,,0.00,,2013-07-08 16:11:00,
2013-07-08 09:22:00,60.0,60.0,30.13,NNW,345,8.0,17.0,100,0.00,,,0.00,,2013-07-08 16:22:00,
2013-07-08 09:33:00,60.0,60.0,30.13,NNW,345,8.0,17.0,100,0.00,,,0.00,,2013-07-08 16:33:00,
2013-07-08 09:43:00,60.0,60.0,30.14,WNW,293,11.0,17.0,100,0.00,,,0.00,,2013-07-08 16:43:00,
2013-07-08 09:52:00,60.0,60.0,30.14,WNW,293,11.0,17.0,100,0.00,,,0.00,,2013-07-08 16:52:00,
2013-07-08 10:22:00,61.0,61.0,30.14,NW,325,10.0,17.0,100,0.00,,,0.00,,2013-07-08 17:22:00,
2013-07-08 11:01:00,61.0,61.0,30.14,NW,308,13.0,18.0,100,0.00,,,0.00,,2013-07-08 18:01:00,
2013-07-08 11:53:00,61.0,61.0,30.14,NW,308,14.0,21.0,100,0.00,,,0.00,,2013-07-08 18:53:00,
2013-07-08 12:05:00,61.0,61.0,30.14,NW,308,14.0,21.0,100,0.00,,,0.00,,2013-07-08 19:05:00,
2013-07-08 12:13:00,61.0,61.0,30.14,NW,315,17.0,24.0,100,0.00,,,0.00,,2013-07-08 19:13:00,
2013-07-08 12:33:00,62.0,62.0,30.14,WNW,287,15.0,21.0,100,0.00,,,0.00,,2013-07-08 19:33:00,
2013-07-08 12:53:00,62.0,62.0,30.14,NW,308,15.0,25.0,100,0.00,,,0.00,,2013-07-08 19:53:00,
2013-07-08 13:22:00,62.0,62.0,30.14,NW,309,13.0,25.0,100,0.00,,,0.00,,2013-07-08 20:22:00,
2013-07-08 13:34:00,62.0,62.0,30.14,NW,309,13.0,25.0,100,0.00,,,0.00,,2013-07-08 20:34:00,
2013-07-08 15:34:00,62.0,62.0,30.12,WNW,286,16.0,24.0,100,0.00,,,0.00,,2013-07-08 22:34:00,
2013-07-08 16:03:00,62.0,62.0,30.12,NNW,329,14.0,25.0,100,0.00,,,0.00,,2013-07-08 23:03:00,
2013-07-08 16:22:00,62.0,62.0,30.12,NW,321,16.0,23.0,100,0.00,,,0.00,,2013-07-08 23:22:00,
2013-07-08 16:34:00,62.0,62.0,30.12,NW,321,16.0,23.0,100,0.00,,,0.00,,2013-07-08 23:34:00,
2013-07-08 17:03:00,62.0,62.0,30.11,NW,313,13.0,24.0,100,0.00,,,0.00,,2013-07-09 00:03:00,
2013-07-08 17:45:00,63.0,63.0,30.10,NW,326,14.0,25.0,100,0.00,,,0.00,,2013-07-09 00:45:00,
2013-07-08 17:53:00,63.0,63.0,30.10,NNW,334,16.0,26.0,100,0.00,,,0.00,,2013-07-09 00:53:00,
2013-07-08 18:13:00,62.0,62.0,30.10,NNW,334,16.0,26.0,100,0.00,,,0.00,,2013-07-09 01:13:00,
2013-07-08 18:33:00,62.0,62.0,30.10,NW,319,15.0,27.0,100,0.00,,,0.00,,2013-07-09 01:33:00,
2013-07-08 18:46:00,62.0,62.0,30.09,NW,324,11.0,23.0,100,0.00,,,0.00,,2013-07-09 01:46:00,
2013-07-08 18:53:00,62.0,62.0,30.09,NW,324,11.0,23.0,100,0.00,,,0.00,,2013-07-09 01:53:00,
2013-07-08 19:13:00,-999.0,-99.9,30.09,NNW,327,13.0,23.0,100,0.00,,,0.00,,2013-07-09 02:13:00,
2013-07-08 19:22:00,62.0,62.0,30.09,WNW,301,9.0,21.0,100,0.00,,,0.00,,2013-07-09 02:22:00,
2013-07-08 19:36:00,62.0,62.0,30.09,WNW,301,9.0,21.0,100,0.00,,,0.00,,2013-07-09 02:36:00,
2013-07-08 20:34:00,60.0,60.0,30.10,NNW,328,13.0,18.0,100,0.00,,,0.00,,2013-07-09 03:34:00,
2013-07-08 20:45:00,59.0,59.0,30.10,WNW,298,10.0,15.0,100,0.00,,,0.00,,2013-07-09 03:45:00,
2013-07-08 20:54:00,59.0,59.0,30.10,NW,308,9.0,16.0,100,0.00,,,0.00,,2013-07-09 03:54:00,
2013-07-08 21:02:00,59.0,59.0,30.10,NW,308,9.0,16.0,100,0.00,,,0.00,,2013-07-09 04:02:00,
2013-07-08 21:11:00,58.0,58.0,30.09,NW,311,7.0,15.0,100,0.00,,,0.00,,2013-07-09 04:11:00,
2013-07-08 21:22:00,58.0,58.0,30.10,NW,304,7.0,14.0,100,0.00,,,0.00,,2013-07-09 04:22:00,
2013-07-08 21:33:00,58.0,58.0,30.10,NW,304,7.0,14.0,100,0.00,,,0.00,,2013-07-09 04:33:00,
2013-07-08 21:42:00,58.0,58.0,30.10,NW,322,5.0,12.0,100,0.00,,,0.00,,2013-07-09 04:42:00,
2013-07-08 21:53:00,58.0,58.0,30.10,NW,322,6.0,10.0,100,0.00,,,0.00,,2013-07-09 04:53:00,
2013-07-08 22:02:00,58.0,58.0,30.10,NW,322,6.0,10.0,100,0.00,,,0.00,,2013-07-09 05:02:00,
2013-07-08 22:11:00,58.0,58.0,30.11,NW,318,3.0,7.0,100,0.00,,,0.00,,2013-07-09 05:11:00,
2013-07-08 22:22:00,58.0,58.0,30.12,NW,309,3.0,6.0,100,0.00,,,0.00,,2013-07-09 05:22:00,
2013-07-08 22:33:00,58.0,58.0,30.12,NW,310,1.0,5.0,100,0.00,,,0.00,,2013-07-09 05:33:00,
2013-07-08 22:42:00,58.0,58.0,30.12,NW,310,1.0,5.0,100,0.00,,,0.00,,2013-07-09 05:42:00,
2013-07-08 22:52:00,58.0,58.0,30.12,WNW,299,1.0,2.0,100,0.00,,,0.00,,2013-07-09 05:52:00,
2013-07-08 23:01:00,58.0,58.0,30.12,WNW,299,1.0,2.0,100,0.00,,,0.00,,2013-07-09 06:01:00,
2013-07-08 23:11:00,58.0,58.0,30.12,WNW,297,0.0,1.0,100,0.00,,,0.00,,2013-07-09 06:11:00,
2013-07-08 23:22:00,58.0,58.0,30.12,WNW,297,0.0,1.0,100,0.00,,,0.00,,2013-07-09 06:22:00,
2013-07-08 23:33:00,57.0,57.0,30.12,WNW,297,0.0,2.0,100,0.00,,,0.00,,2013-07-09 06:33:00,
2013-07-08 23:43:00,58.0,58.0,30.12,NW,313,3.0,4.0,100,0.00,,,0.00,,2013-07-09 06:43:00,
2013-07-08 23:53:00,57.0,57.0,30.12,NW,317,0.0,2.0,100,0.00,,,0.00,,2013-07-09 06:53:00,